Auburn, IN

4:15 PM EDT on September 22, 2017 (GMT -0400)
Auburn

Weather History for KGWB - February, 2012

Change the Weather History Date:

Monday, February 27, 2012

  Actual Average (KFWA) Record (KFWA)
Temperature  
Mean Temperature 36 °F -  
Max Temperature 42 °F 39 °F 70 °F (1996)
Min Temperature 28 °F 23 °F -18 °F (1963)
Degree Days  
Heating Degree Days 29    
Moisture  
Dew Point 24 °F    
Average Humidity 59    
Maximum Humidity 80    
Minimum Humidity 45    
Precipitation  
Precipitation 0.00 in - - ()
Sea Level Pressure  
Sea Level Pressure 30.24 in    
Wind  
Wind Speed 10 mph (West)    
Max Wind Speed 28 mph    
Max Gust Speed 34 mph    
Visibility 10 miles    
Events      
Averages and records for this station are not official NWS values.
T = Trace of Precipitation, MM = Missing Value Source: NWS Daily Summary

Daily Weather History Graph

Daily Weather History Graph

Search for Another Location

Airport or City:

Trip Planner

Search our weather history database for the weather conditions in past years. The results will help you decide how hot, cold, wet, or windy it might be!

Date:

Astronomy

Feb. 27, 2012 Rise Set
Actual Time 7:18 AM EST 6:28 PM EST
Civil Twilight 6:50 AM EST 6:55 PM EST
Nautical Twilight 6:18 AM EST 7:27 PM EST
Astronomical Twilight 5:46 AM EST 7:59 PM EST
Moon 9:43 AM EST (2/27) No Moon Set
Length of Visible Light 12h 05m
Length of Day
11h 09m
Waxing Crescent, 29% of the Moon is Illuminated
Feb 27
Waxing Crescent
Feb 29
First Quarter
Mar 8
Full
Mar 14
Last Quarter
Mar 22
New

Hourly Weather History & Observations

Time (EST) Temp. Windchill Dew Point Humidity Pressure Visibility Wind Dir Wind Speed Gust Speed Precip Events Conditions
12:15 AM 37.4 °F 32.1 °F 23.0 °F 56% 30.10 in 10.0 mi South 6.9 mph - N/A   Clear
12:55 AM 39.2 °F 33.6 °F 23.0 °F 52% 30.10 in 10.0 mi SSW 8.1 mph - N/A   Clear
1:15 AM 39.2 °F 33.6 °F 23.0 °F 52% 30.10 in 10.0 mi SSW 8.1 mph - N/A   Clear
1:35 AM 41.0 °F 34.7 °F 23.0 °F 49% 30.10 in 10.0 mi SSW 10.4 mph 16.1 mph N/A   Clear
1:55 AM 39.2 °F 32.5 °F 24.8 °F 56% 30.10 in 10.0 mi SSW 10.4 mph - N/A   Clear
2:15 AM 39.2 °F 33.6 °F 24.8 °F 56% 30.10 in 10.0 mi SSW 8.1 mph - N/A   Clear
2:35 AM 37.4 °F 32.8 °F 24.8 °F 60% 30.10 in 10.0 mi SSW 5.8 mph - N/A   Clear
2:55 AM 37.4 °F 33.8 °F 24.8 °F 60% 30.10 in 10.0 mi SSW 4.6 mph - N/A   Clear
3:15 AM 41.0 °F 37.1 °F 24.8 °F 53% 30.10 in 10.0 mi SW 5.8 mph - N/A   Clear
3:35 AM 39.2 °F 35.0 °F 24.8 °F 56% 30.10 in 10.0 mi SW 5.8 mph - N/A   Clear
3:55 AM 39.2 °F 35.0 °F 24.8 °F 56% 30.10 in 10.0 mi SW 5.8 mph - N/A   Scattered Clouds
4:15 AM 37.4 °F 33.8 °F 26.6 °F 65% 30.11 in 10.0 mi SSW 4.6 mph - N/A   Mostly Cloudy
4:35 AM 37.4 °F 33.8 °F 26.6 °F 65% 30.11 in 10.0 mi SW 4.6 mph - N/A   Mostly Cloudy
4:55 AM 37.4 °F 33.8 °F 26.6 °F 65% 30.12 in 10.0 mi WSW 4.6 mph - N/A   Mostly Cloudy
5:15 AM 39.2 °F 34.2 °F 28.4 °F 65% 30.12 in 10.0 mi WSW 6.9 mph - N/A   Mostly Cloudy
5:35 AM 39.2 °F 35.0 °F 28.4 °F 65% 30.12 in 10.0 mi WSW 5.8 mph - N/A   Overcast
5:55 AM 39.2 °F 34.2 °F 28.4 °F 65% 30.13 in 10.0 mi WSW 6.9 mph - N/A   Overcast
6:15 AM 37.4 °F 32.1 °F 30.2 °F 75% 30.13 in 10.0 mi WSW 6.9 mph - N/A   Overcast
6:35 AM 37.4 °F 32.8 °F 28.4 °F 70% 30.15 in 10.0 mi WSW 5.8 mph - N/A   Overcast
6:55 AM 37.4 °F 32.8 °F 28.4 °F 70% 30.15 in 10.0 mi WSW 5.8 mph - N/A   Mostly Cloudy
7:15 AM 37.4 °F 32.8 °F 28.4 °F 70% 30.15 in 10.0 mi SW 5.8 mph - N/A   Scattered Clouds
7:35 AM 37.4 °F 32.8 °F 28.4 °F 70% 30.16 in 10.0 mi SW 5.8 mph - N/A   Mostly Cloudy
8:15 AM 37.4 °F 32.1 °F 26.6 °F 65% 30.17 in 10.0 mi WSW 6.9 mph - N/A   Scattered Clouds
8:35 AM 39.2 °F 33.0 °F 26.6 °F 61% 30.17 in 10.0 mi WSW 9.2 mph - N/A   Mostly Cloudy
8:55 AM 39.2 °F 33.0 °F 26.6 °F 61% 30.17 in 10.0 mi WSW 9.2 mph 16.1 mph N/A   Scattered Clouds
9:15 AM 39.2 °F 31.6 °F 24.8 °F 56% 30.18 in 10.0 mi WSW 12.7 mph 17.3 mph N/A   Clear
9:35 AM 41.0 °F 33.9 °F 23.0 °F 49% 30.19 in 10.0 mi West 12.7 mph 18.4 mph N/A   Clear
9:55 AM 41.0 °F 33.5 °F 23.0 °F 49% 30.19 in 10.0 mi WSW 13.8 mph 20.7 mph N/A   Clear
10:15 AM 41.0 °F 33.1 °F 23.0 °F 49% 30.20 in 10.0 mi West 15.0 mph 23.0 mph N/A   Clear
10:35 AM 41.0 °F 30.9 °F 21.2 °F 45% 30.20 in 10.0 mi West 24.2 mph 27.6 mph N/A   Clear
10:55 AM 41.0 °F 31.9 °F 23.0 °F 49% 30.21 in 10.0 mi West 19.6 mph 24.2 mph N/A   Clear
11:15 AM 42.8 °F 34.0 °F 23.0 °F 46% 30.21 in 10.0 mi West 20.7 mph 29.9 mph N/A   Clear
11:35 AM 41.0 °F 31.4 °F 23.0 °F 49% 30.22 in 10.0 mi West 21.9 mph 31.1 mph N/A   Clear
11:55 AM 41.0 °F 32.2 °F 23.0 °F 49% 30.23 in 10.0 mi West 18.4 mph 28.8 mph N/A   Clear
12:15 PM 41.0 °F 32.2 °F 23.0 °F 49% 30.24 in 10.0 mi WSW 18.4 mph 32.2 mph N/A   Clear
12:35 PM 41.0 °F 30.2 °F 23.0 °F 49% 30.25 in 10.0 mi West 27.6 mph 34.5 mph N/A   Clear
12:55 PM 41.0 °F 32.5 °F 26.6 °F 57% 30.25 in 10.0 mi West 17.3 mph 25.3 mph N/A   Clear
1:35 PM 41.0 °F 31.6 °F 26.6 °F 57% 30.26 in 10.0 mi West 20.7 mph 28.8 mph N/A   Scattered Clouds
1:55 PM 41.0 °F 31.4 °F 23.0 °F 49% 30.26 in 10.0 mi West 21.9 mph 29.9 mph N/A   Scattered Clouds
2:15 PM 41.0 °F 31.9 °F 24.8 °F 53% 30.27 in 10.0 mi WNW 19.6 mph 27.6 mph N/A   Clear
2:35 PM 41.0 °F 30.9 °F 24.8 °F 53% 30.28 in 10.0 mi West 24.2 mph 31.1 mph N/A   Scattered Clouds
2:55 PM 41.0 °F 31.6 °F 23.0 °F 49% 30.29 in 10.0 mi WNW 20.7 mph 32.2 mph N/A   Scattered Clouds
3:15 PM 39.2 °F 28.7 °F 23.0 °F 52% 30.30 in 10.0 mi WNW 23.0 mph 29.9 mph N/A   Clear
3:35 PM 39.2 °F 29.8 °F 21.2 °F 49% 30.30 in 10.0 mi WNW 18.4 mph 28.8 mph N/A   Clear
3:55 PM 39.2 °F 29.8 °F 23.0 °F 52% 30.32 in 10.0 mi WNW 18.4 mph 27.6 mph N/A   Clear
4:15 PM 39.2 °F 30.5 °F 23.0 °F 52% 30.32 in 10.0 mi WNW 16.1 mph 24.2 mph N/A   Clear
4:35 PM 37.4 °F 28.5 °F 23.0 °F 56% 30.33 in 10.0 mi WNW 15.0 mph 21.9 mph N/A   Clear
4:55 PM 37.4 °F 28.5 °F 23.0 °F 56% 30.35 in 10.0 mi NW 15.0 mph 19.6 mph N/A   Clear
5:15 PM 35.6 °F 27.1 °F 23.0 °F 60% 30.37 in 10.0 mi WNW 12.7 mph 18.4 mph N/A   Clear
5:35 PM 35.6 °F 26.6 °F 23.0 °F 60% 30.38 in 10.0 mi WNW 13.8 mph 20.7 mph N/A   Clear
5:55 PM 35.6 °F 28.0 °F 23.0 °F 60% 30.39 in 10.0 mi NW 10.4 mph 19.6 mph N/A   Clear
6:15 PM 33.8 °F 25.8 °F 23.0 °F 65% 30.40 in 10.0 mi NW 10.4 mph - N/A   Clear
6:35 PM 32.0 °F 26.4 °F 23.0 °F 69% 30.41 in 10.0 mi NNW 5.8 mph - N/A   Clear
6:55 PM 32.0 °F 24.8 °F 23.0 °F 69% 30.42 in 10.0 mi NW 8.1 mph - N/A   Clear
7:15 PM 32.0 °F 25.6 °F 23.0 °F 69% 30.42 in 10.0 mi NW 6.9 mph - N/A   Clear
7:35 PM 32.0 °F 26.4 °F 23.0 °F 69% 30.44 in 10.0 mi NW 5.8 mph - N/A   Clear
7:55 PM 32.0 °F 26.4 °F 23.0 °F 69% 30.45 in 10.0 mi NW 5.8 mph - N/A   Clear
8:15 PM 30.2 °F 25.4 °F 23.0 °F 75% 30.45 in 10.0 mi NW 4.6 mph - N/A   Clear
8:35 PM 30.2 °F 25.4 °F 23.0 °F 75% 30.45 in 10.0 mi NNW 4.6 mph - N/A   Clear
9:15 PM 30.2 °F - 23.0 °F 75% 30.46 in 10.0 mi Calm Calm - N/A   Clear
9:35 PM 30.2 °F - 23.0 °F 75% 30.46 in 10.0 mi Calm Calm - N/A   Clear
9:55 PM 28.4 °F - 23.0 °F 80% 30.47 in 10.0 mi Calm Calm - N/A   Clear
10:15 PM 28.4 °F - 21.2 °F 74% 30.48 in 10.0 mi Calm Calm - N/A   Clear
10:35 PM 28.4 °F - 23.0 °F 80% 30.48 in 10.0 mi Calm Calm - N/A   Clear
11:15 PM 26.6 °F - 23.0 °F 86% 30.48 in 10.0 mi Calm Calm - N/A   Clear
11:35 PM 26.6 °F - 23.0 °F 86% 30.48 in 10.0 mi Calm Calm - N/A   Clear
11:55 PM 26.6 °F - 21.2 °F 80% 30.48 in 10.0 mi Calm Calm - N/A   Clear